| time (UTC) | temp F | wind direction | speed MPH | gust MPH | rain 1hr in | rain 24hr in | rain mn in | humidity % | barometer mb |
| 20260905234026 | 75 | 238 | 0.0 | 0.0 | 0.00 | 0.62 | 0.62 | 88 | 1014.9 |
| 20260905233521 | 74 | 354 | 0.0 | 0.0 | 0.00 | 0.62 | 0.62 | 89 | 1014.8 |
| 20260905233021 | 74 | 354 | 0.0 | 0.0 | 0.00 | 0.62 | 0.62 | 89 | 1014.9 |
| 20260905232516 | 74 | 238 | 0.0 | 0.0 | 0.00 | 0.62 | 0.62 | 90 | 1014.7 |
| 20260905232012 | 74 | 194 | 0.0 | 0.0 | 0.00 | 0.62 | 0.62 | 89 | 1014.7 |
| 20260905231507 | 74 | 194 | 0.0 | 0.0 | 0.00 | 0.62 | 0.62 | 89 | 1014.7 |
| 20260905231003 | 74 | 238 | 0.0 | 0.0 | 0.00 | 0.62 | 0.62 | 87 | 1014.6 |
| 20260905230502 | 74 | 336 | 0.0 | 0.0 | 0.00 | 0.62 | 0.62 | 88 | 1014.8 |
| 20260905230000 | 74 | 251 | 0.0 | 0.0 | 0.00 | 0.62 | 0.62 | 89 | 1014.7 |
| 20260905225455 | 75 | 251 | 0.0 | 0.0 | 0.00 | 0.62 | 0.62 | 88 | 1014.6 |
| 20260905224950 | 75 | 325 | 0.0 | 0.0 | 0.00 | 0.62 | 0.62 | 87 | 1014.5 |
| 20260905224446 | 75 | 325 | 0.0 | 0.0 | 0.00 | 0.62 | 0.62 | 86 | 1014.7 |
| 20260905223945 | 75 | 325 | 0.0 | 0.0 | 0.00 | 0.62 | 0.62 | 86 | 1014.7 |
| 20260905223443 | 76 | 238 | 0.0 | 0.0 | 0.02 | 0.62 | 0.62 | 84 | 1014.4 |
| 20260905222938 | 76 | 238 | 0.0 | 0.0 | 0.05 | 0.62 | 0.62 | 85 | 1014.5 |
| 20260905222437 | 77 | 238 | 0.0 | 0.0 | 0.02 | 0.62 | 0.62 | 83 | 1014.7 |
| 20260905221933 | 78 | 263 | 0.0 | 0.0 | 0.02 | 0.61 | 0.61 | 80 | 1014.5 |
| 20260905221429 | 80 | 325 | 0.0 | 0.0 | 0.07 | 0.61 | 0.61 | 74 | 1014.3 |
| 20260905220926 | 80 | 238 | 0.0 | 0.0 | 0.05 | 0.61 | 0.61 | 67 | 1014.2 |
| 20260905220422 | 80 | 216 | 0.0 | 0.0 | 0.00 | 0.60 | 0.60 | 69 | 1014.3 |
| 20260905215920 | 81 | 53 | 0.0 | 0.0 | 0.00 | 0.60 | 0.60 | 64 | 1014.3 |
| 20260905215416 | 81 | 163 | 0.0 | 0.0 | 0.00 | 0.60 | 0.60 | 67 | 1014.2 |
| 20260905214913 | 80 | 230 | 0.0 | 1.0 | 0.00 | 0.60 | 0.60 | 66 | 1014.3 |
| 20260905214408 | 80 | 138 | 0.0 | 0.0 | 0.00 | 0.60 | 0.60 | 65 | 1014.3 |
| 20260905213908 | 81 | 118 | 1.0 | 1.0 | 0.00 | 0.60 | 0.60 | 68 | 1014.1 |
| 20260905213404 | 81 | 65 | 0.0 | 0.0 | 0.00 | 0.60 | 0.60 | 65 | 1014.2 |
| 20260905212859 | 81 | 239 | 0.0 | 1.0 | 0.00 | 0.60 | 0.60 | 68 | 1014.1 |
| 20260905212354 | 82 | 274 | 0.0 | 0.0 | 0.00 | 0.60 | 0.60 | 66 | 1014.1 |
| 20260905211847 | 82 | 68 | 0.0 | 1.0 | 0.00 | 0.60 | 0.60 | 66 | 1014.0 |
| 20260905211343 | 81 | 238 | 0.0 | 1.0 | 0.00 | 0.60 | 0.60 | 66 | 1014.1 |
| 20260905210839 | 80 | 96 | 0.0 | 1.0 | 0.00 | 0.60 | 0.60 | 69 | 1014.0 |
| 20260905210340 | 80 | 201 | 0.0 | 0.0 | 0.00 | 0.60 | 0.60 | 68 | 1014.0 |
| 20260905205839 | 80 | 343 | 0.0 | 0.0 | 0.00 | 0.60 | 0.60 | 68 | 1013.9 |
| 20260905205339 | 80 | 343 | 0.0 | 0.0 | 0.00 | 0.60 | 0.60 | 69 | 1014.2 |
| 20260905204833 | 80 | 216 | 0.0 | 1.0 | 0.00 | 0.60 | 0.60 | 68 | 1013.9 |
| 20260905204329 | 81 | 345 | 2.0 | 2.0 | 0.00 | 0.60 | 0.60 | 66 | 1014.1 |
| 20260905203827 | 81 | 231 | 0.0 | 2.0 | 0.00 | 0.60 | 0.60 | 66 | 1014.2 |
| 20260905203324 | 81 | 233 | 1.0 | 2.0 | 0.00 | 0.60 | 0.60 | 70 | 1014.2 |
| 20260905202819 | 82 | 168 | 0.0 | 1.0 | 0.00 | 0.60 | 0.60 | 64 | 1014.4 |
| 20260905202313 | 83 | 21 | 0.0 | 1.0 | 0.00 | 0.60 | 0.60 | 64 | 1014.3 |
| 20260905201809 | 84 | 263 | 0.0 | 1.0 | 0.00 | 0.60 | 0.60 | 64 | 1014.1 |
| 20260905201304 | 82 | 277 | 0.0 | 1.0 | 0.00 | 0.60 | 0.60 | 66 | 1014.2 |
| 20260905200758 | 82 | 238 | 0.0 | 1.0 | 0.00 | 0.60 | 0.60 | 68 | 1014.0 |
| 20260905200255 | 83 | 135 | 2.0 | 2.0 | 0.00 | 0.60 | 0.60 | 63 | 1014.5 |
| 20260905195752 | 83 | 330 | 0.0 | 1.0 | 0.00 | 0.60 | 0.60 | 63 | 1014.3 |
| 20260905195247 | 81 | 223 | 0.0 | 2.0 | 0.00 | 0.60 | 0.60 | 69 | 1014.7 |
| 20260905194743 | 81 | 177 | 0.0 | 2.0 | 0.00 | 0.60 | 0.60 | 72 | 1014.7 |
| 20260905194242 | 81 | 147 | 2.0 | 2.0 | 0.00 | 0.60 | 0.60 | 70 | 1014.9 |
| 20260905193742 | 81 | 167 | 1.0 | 2.0 | 0.00 | 0.60 | 0.60 | 69 | 1014.8 |
| 20260905193237 | 80 | 238 | 0.0 | 1.0 | 0.00 | 0.60 | 0.60 | 72 | 1015.1 |
| 20260905192727 | 80 | 20 | 1.0 | 2.0 | 0.00 | 0.60 | 0.60 | 70 | 1014.9 |
| 20260905192224 | 78 | 216 | 0.0 | 0.0 | 0.00 | 0.60 | 0.60 | 82 | 1014.9 |
| 20260905191723 | 78 | 222 | 0.0 | 1.0 | 0.00 | 0.60 | 0.60 | 79 | 1014.8 |
| 20260905191221 | 77 | 212 | 0.0 | 1.0 | 0.00 | 0.60 | 0.60 | 83 | 1015.0 |
| 20260905190720 | 76 | 330 | 0.0 | 1.0 | 0.00 | 0.60 | 0.60 | 85 | 1015.1 |
| 20260905190219 | 75 | 185 | 0.0 | 1.0 | 0.00 | 0.60 | 0.60 | 88 | 1015.1 |
| 20260905185718 | 74 | 305 | 2.0 | 2.0 | 0.00 | 0.60 | 0.60 | 93 | 1015.2 |
| 20260905185213 | 73 | 238 | 0.0 | 2.0 | 0.00 | 0.60 | 0.60 | 94 | 1015.3 |
| 20260905184713 | 72 | 97 | 0.0 | 0.0 | 0.00 | 0.60 | 0.60 | 94 | 1015.4 |
| 20260905184211 | 72 | 163 | 0.0 | 0.0 | 0.00 | 0.60 | 0.60 | 94 | 1015.4 |
| 20260905183706 | 72 | 318 | 0.0 | 0.0 | 0.00 | 0.60 | 0.60 | 94 | 1015.8 |
| 20260905183202 | 72 | 251 | 0.0 | 0.0 | 0.00 | 0.60 | 0.60 | 94 | 1015.5 |
| 20260905182700 | 72 | 251 | 0.0 | 0.0 | 0.00 | 0.60 | 0.60 | 94 | 1015.8 |
| 20260905182200 | 72 | 251 | 0.0 | 0.0 | 0.00 | 0.60 | 0.60 | 94 | 1015.7 |
| 20260905181655 | 72 | 251 | 0.0 | 0.0 | 0.00 | 0.60 | 0.60 | 93 | 1015.7 |
| 20260905181154 | 71 | 238 | 0.0 | 0.0 | 0.00 | 0.60 | 0.60 | 93 | 1016.0 |
| 20260905180649 | 72 | 263 | 0.0 | 0.0 | 0.00 | 0.60 | 0.60 | 94 | 1016.2 |
| 20260905180145 | 72 | 343 | 0.0 | 0.0 | 0.00 | 0.60 | 0.60 | 94 | 1016.1 |
| 20260905175643 | 72 | 343 | 0.0 | 1.0 | 0.00 | 0.60 | 0.60 | 94 | 1016.2 |
| 20260905175139 | 72 | 330 | 0.0 | 0.0 | 0.00 | 0.60 | 0.60 | 94 | 1016.3 |
| 20260905174635 | 72 | 290 | 0.0 | 0.0 | 0.00 | 0.60 | 0.60 | 94 | 1015.6 |
| 20260905174130 | 72 | 149 | 2.0 | 2.0 | 0.00 | 0.60 | 0.60 | 94 | 1016.0 |
| 20260905173626 | 72 | 256 | 0.0 | 0.0 | 0.00 | 0.60 | 0.60 | 94 | 1016.0 |
| 20260905173122 | 72 | 290 | 0.0 | 0.0 | 0.00 | 0.60 | 0.60 | 94 | 1015.6 |
| 20260905172620 | 71 | 327 | 0.0 | 1.0 | 0.00 | 0.60 | 0.60 | 94 | 1015.3 |
| 20260905172115 | 71 | 318 | 0.0 | 1.0 | 0.00 | 0.60 | 0.60 | 94 | 1015.1 |
| 20260905171612 | 71 | 245 | 0.0 | 1.0 | 0.00 | 0.60 | 0.60 | 94 | 1014.7 |
| 20260905171107 | 71 | 351 | 0.0 | 1.0 | 0.00 | 0.60 | 0.60 | 94 | 1015.0 |
| 20260905170604 | 71 | 168 | 0.0 | 1.0 | 0.00 | 0.60 | 0.60 | 94 | 1015.0 |
| 20260905170059 | 71 | 245 | 0.0 | 1.0 | 0.00 | 0.60 | 0.60 | 94 | 1014.9 |
| 20260905165559 | 71 | 138 | 0.0 | 0.0 | 0.00 | 0.60 | 0.60 | 94 | 1014.8 |
| 20260905165054 | 71 | 131 | 0.0 | 0.0 | 0.00 | 0.60 | 0.60 | 94 | 1014.9 |
| 20260905164549 | 71 | 263 | 0.0 | 0.0 | 0.00 | 0.60 | 0.60 | 94 | 1014.6 |
| 20260905164044 | 71 | 336 | 0.0 | 1.0 | 0.00 | 0.60 | 0.60 | 94 | 1014.7 |
| 20260905163540 | 71 | 141 | 0.0 | 1.0 | 0.00 | 0.60 | 0.60 | 94 | 1014.3 |
| 20260905163036 | 71 | 168 | 0.0 | 1.0 | 0.00 | 0.60 | 0.60 | 94 | 1014.8 |
| 20260905162533 | 71 | 185 | 0.0 | 2.0 | 0.02 | 0.60 | 0.60 | 94 | 1015.6 |
| 20260905162032 | 71 | 297 | 1.0 | 2.0 | 0.02 | 0.60 | 0.60 | 94 | 1015.7 |
| 20260905161532 | 70 | 69 | 1.0 | 2.0 | 0.02 | 0.60 | 0.60 | 94 | 1016.0 |
| 20260905161029 | 71 | 160 | 0.0 | 1.0 | 0.02 | 0.60 | 0.60 | 94 | 1016.2 |
| 20260905160528 | 70 | 238 | 0.0 | 0.0 | 0.00 | 0.59 | 0.59 | 94 | 1016.5 |
| 20260905160023 | 70 | 238 | 0.0 | 1.0 | 0.00 | 0.59 | 0.59 | 94 | 1016.7 |
| 20260905155523 | 70 | 277 | 0.0 | 0.0 | 0.02 | 0.59 | 0.59 | 94 | 1016.3 |
| 20260905155021 | 70 | 238 | 0.0 | 1.0 | 0.00 | 0.59 | 0.59 | 94 | 1016.9 |
| 20260905154517 | 70 | 233 | 0.0 | 1.0 | 0.00 | 0.59 | 0.59 | 94 | 1016.7 |
| 20260905154012 | 70 | 357 | 0.0 | 1.0 | 0.02 | 0.59 | 0.59 | 93 | 1016.9 |
| 20260905153508 | 70 | 143 | 1.0 | 2.0 | 0.05 | 0.59 | 0.59 | 93 | 1016.9 |
| 20260905153008 | 70 | 233 | 0.0 | 0.0 | 0.00 | 0.58 | 0.58 | 93 | 1017.2 |
| 20260905152508 | 70 | 233 | 0.0 | 0.0 | 0.02 | 0.58 | 0.58 | 93 | 1017.7 |
| 20260905152002 | 70 | 336 | 0.0 | 1.0 | 0.12 | 0.58 | 0.58 | 92 | 1017.9 |
| 20260905151458 | 71 | 145 | 1.0 | 2.0 | 0.47 | 0.58 | 0.58 | 91 | 1017.6 |
| 20260905150953 | 72 | 147 | 2.0 | 5.0 | 1.39 | 0.56 | 0.56 | 92 | 1017.8 |
| 20260905150448 | 74 | 357 | 0.0 | 2.0 | 2.58 | 0.45 | 0.45 | 93 | 1018.6 |
| 20260905145944 | 74 | 175 | 0.0 | 1.0 | 1.37 | 0.23 | 0.23 | 93 | 1018.4 |
| 20260905145440 | 75 | 251 | 0.0 | 0.0 | 0.14 | 0.02 | 0.02 | 92 | 1017.1 |
| 20260905144939 | 75 | 251 | 0.0 | 0.0 | 0.00 | 0.00 | 0.00 | 92 | 1016.5 |
| 20260905144434 | 75 | 276 | 0.0 | 0.0 | 0.00 | 0.00 | 0.00 | 91 | 1016.1 |
| 20260905143932 | 75 | 6 | 0.0 | 1.0 | 0.00 | 0.00 | 0.00 | 90 | 1016.1 |
| 20260905143426 | 75 | 276 | 0.0 | 0.0 | 0.00 | 0.00 | 0.00 | 91 | 1016.1 |
| 20260905142921 | 75 | 226 | 0.0 | 0.0 | 0.00 | 0.00 | 0.00 | 90 | 1016.1 |
| 20260905142420 | 75 | 226 | 0.0 | 0.0 | 0.00 | 0.00 | 0.00 | 89 | 1016.1 |
| 20260905141916 | 76 | 276 | 0.0 | 0.0 | 0.00 | 0.00 | 0.00 | 89 | 1016.3 |
| 20260905141410 | 76 | 124 | 0.0 | 0.0 | 0.00 | 0.00 | 0.00 | 89 | 1016.2 |
| 20260905140907 | 76 | 150 | 0.0 | 0.0 | 0.00 | 0.00 | 0.00 | 89 | 1016.2 |
| 20260905140402 | 76 | 150 | 0.0 | 0.0 | 0.00 | 0.00 | 0.00 | 89 | 1016.2 |
| 20260905135901 | 76 | 150 | 0.0 | 0.0 | 0.00 | 0.00 | 0.00 | 87 | 1016.3 |
| 20260905135356 | 77 | 278 | 0.0 | 0.0 | 0.00 | 0.00 | 0.00 | 88 | 1016.0 |
| 20260905134851 | 77 | 251 | 0.0 | 0.0 | 0.00 | 0.00 | 0.00 | 87 | 1015.8 |
| 20260905134349 | 77 | 134 | 0.0 | 0.0 | 0.00 | 0.00 | 0.00 | 88 | 1015.9 |
| 20260905133844 | 77 | 96 | 0.0 | 0.0 | 0.00 | 0.00 | 0.00 | 89 | 1015.8 |
| 20260905133339 | 77 | 343 | 0.0 | 0.0 | 0.00 | 0.00 | 0.00 | 89 | 1015.8 |
| 20260905132838 | 77 | 119 | 0.0 | 0.0 | 0.00 | 0.00 | 0.00 | 89 | 1015.7 |
| 20260905132329 | 77 | 119 | 0.0 | 0.0 | 0.00 | 0.00 | 0.00 | 88 | 1015.5 |
| 20260905131828 | 78 | 119 | 0.0 | 0.0 | 0.00 | 0.00 | 0.00 | 88 | 1015.4 |
| 20260905131324 | 78 | 267 | 0.0 | 2.0 | 0.00 | 0.00 | 0.00 | 86 | 1015.3 |
| 20260905130819 | 79 | 110 | 0.0 | 0.0 | 0.00 | 0.00 | 0.00 | 86 | 1015.3 |
| 20260905130318 | 79 | 81 | 0.0 | 1.0 | 0.00 | 0.00 | 0.00 | 86 | 1015.3 |
| 20260905125813 | 79 | 239 | 0.0 | 0.0 | 0.00 | 0.00 | 0.00 | 92 | 1015.4 |
| 20260905125308 | 77 | 216 | 0.0 | 0.0 | 0.00 | 0.00 | 0.00 | 94 | 1015.4 |
| 20260905124804 | 77 | 233 | 0.0 | 0.0 | 0.00 | 0.00 | 0.00 | 95 | 1015.3 |
| 20260905124300 | 75 | 117 | 0.0 | 1.0 | 0.00 | 0.00 | 0.00 | 95 | 1015.4 |
| 20260905123755 | 74 | 266 | 0.0 | 0.0 | 0.00 | 0.00 | 0.00 | 95 | 1015.2 |
| 20260905123252 | 74 | 342 | 0.0 | 0.0 | 0.00 | 0.00 | 0.00 | 95 | 1015.2 |
| 20260905122752 | 73 | 138 | 0.0 | 1.0 | 0.00 | 0.00 | 0.00 | 95 | 1015.1 |
| 20260905122251 | 72 | 256 | 0.0 | 0.0 | 0.00 | 0.00 | 0.00 | 95 | 1015.0 |
| 20260905121746 | 72 | 320 | 0.0 | 1.0 | 0.00 | 0.00 | 0.00 | 95 | 1015.2 |
| 20260905121243 | 72 | 290 | 0.0 | 0.0 | 0.00 | 0.00 | 0.00 | 95 | 1015.3 |
| 20260905120741 | 72 | 123 | 0.0 | 0.0 | 0.00 | 0.00 | 0.00 | 95 | 1015.0 |
| 20260905120236 | 71 | 140 | 0.0 | 0.0 | 0.00 | 0.00 | 0.00 | 95 | 1015.0 |
| 20260905115732 | 71 | 251 | 0.0 | 0.0 | 0.00 | 0.00 | 0.00 | 95 | 1014.8 |
| 20260905115231 | 71 | 343 | 0.0 | 0.0 | 0.00 | 0.00 | 0.00 | 95 | 1015.0 |
| 20260905114726 | 71 | 124 | 0.0 | 0.0 | 0.00 | 0.00 | 0.00 | 95 | 1015.0 |
| 20260905114224 | 71 | 267 | 0.0 | 0.0 | 0.00 | 0.00 | 0.00 | 95 | 1014.9 |
| 20260905113718 | 71 | 83 | 0.0 | 0.0 | 0.00 | 0.00 | 0.00 | 95 | 1015.0 |
| 20260905113214 | 71 | 135 | 0.0 | 0.0 | 0.00 | 0.00 | 0.00 | 95 | 1014.8 |
| 20260905112714 | 70 | 131 | 0.0 | 0.0 | 0.00 | 0.00 | 0.00 | 95 | 1015.0 |
| 20260905112209 | 70 | 163 | 0.0 | 0.0 | 0.00 | 0.00 | 0.00 | 95 | 1014.9 |
| 20260905111709 | 70 | 53 | 0.0 | 0.0 | 0.00 | 0.00 | 0.00 | 95 | 1015.0 |
| 20260905111209 | 70 | 330 | 0.0 | 0.0 | 0.00 | 0.00 | 0.00 | 95 | 1015.1 |
| 20260905110708 | 70 | 303 | 0.0 | 0.0 | 0.00 | 0.00 | 0.00 | 95 | 1014.8 |
| 20260905110203 | 70 | 166 | 0.0 | 0.0 | 0.00 | 0.00 | 0.00 | 95 | 1014.5 |
| 20260905105658 | 70 | 206 | 0.0 | 0.0 | 0.00 | 0.00 | 0.00 | 95 | 1014.9 |
| 20260905105157 | 70 | 290 | 0.0 | 0.0 | 0.00 | 0.00 | 0.00 | 95 | 1014.6 |
| 20260905104652 | 70 | 58 | 0.0 | 0.0 | 0.00 | 0.00 | 0.00 | 95 | 1014.6 |
| 20260905104148 | 70 | 347 | 0.0 | 0.0 | 0.00 | 0.00 | 0.00 | 95 | 1014.3 |
| 20260905103643 | 70 | 264 | 0.0 | 0.0 | 0.00 | 0.00 | 0.00 | 95 | 1014.3 |
| 20260905103139 | 70 | 238 | 0.0 | 0.0 | 0.00 | 0.00 | 0.00 | 95 | 1014.2 |
| 20260905102634 | 70 | 83 | 0.0 | 0.0 | 0.00 | 0.00 | 0.00 | 95 | 1014.2 |
| 20260905102131 | 70 | 294 | 0.0 | 1.0 | 0.00 | 0.00 | 0.00 | 95 | 1014.5 |
| 20260905101629 | 70 | 233 | 0.0 | 1.0 | 0.00 | 0.00 | 0.00 | 95 | 1014.4 |
| 20260905101127 | 70 | 276 | 0.0 | 1.0 | 0.00 | 0.00 | 0.00 | 95 | 1014.7 |
| 20260905100624 | 70 | 58 | 0.0 | 1.0 | 0.00 | 0.00 | 0.00 | 95 | 1014.4 |
| 20260905100119 | 70 | 161 | 0.0 | 1.0 | 0.00 | 0.00 | 0.00 | 95 | 1014.3 |
| 20260905095612 | 70 | 251 | 0.0 | 0.0 | 0.00 | 0.00 | 0.00 | 95 | 1014.3 |
| 20260905095108 | 70 | 267 | 0.0 | 1.0 | 0.00 | 0.00 | 0.00 | 95 | 1014.4 |
| 20260905094603 | 70 | 185 | 0.0 | 0.0 | 0.00 | 0.00 | 0.00 | 95 | 1014.5 |
| 20260905094103 | 70 | 110 | 0.0 | 0.0 | 0.00 | 0.00 | 0.00 | 95 | 1014.2 |
| 20260905093602 | 70 | 138 | 0.0 | 0.0 | 0.00 | 0.00 | 0.00 | 95 | 1014.4 |
| 20260905093059 | 70 | 275 | 0.0 | 1.0 | 0.00 | 0.00 | 0.00 | 95 | 1014.2 |
| 20260905092558 | 70 | 225 | 0.0 | 1.0 | 0.00 | 0.00 | 0.00 | 95 | 1014.2 |
| 20260905092055 | 70 | 330 | 0.0 | 1.0 | 0.00 | 0.00 | 0.00 | 95 | 1014.3 |
| 20260905091553 | 70 | 242 | 0.0 | 1.0 | 0.00 | 0.00 | 0.00 | 95 | 1014.2 |
| 20260905091048 | 70 | 251 | 0.0 | 1.0 | 0.00 | 0.00 | 0.00 | 95 | 1014.1 |
| 20260905090542 | 70 | 145 | 0.0 | 0.0 | 0.00 | 0.00 | 0.00 | 95 | 1014.4 |
| 20260905090037 | 70 | 185 | 0.0 | 0.0 | 0.00 | 0.00 | 0.00 | 95 | 1013.9 |
| 20260905085535 | 70 | 205 | 0.0 | 0.0 | 0.00 | 0.00 | 0.00 | 95 | 1014.1 |
| 20260905085033 | 70 | 58 | 0.0 | 1.0 | 0.00 | 0.00 | 0.00 | 95 | 1014.0 |
| 20260905084532 | 70 | 4 | 0.0 | 1.0 | 0.00 | 0.00 | 0.00 | 95 | 1014.3 |
| 20260905084027 | 70 | 241 | 0.0 | 1.0 | 0.00 | 0.00 | 0.00 | 95 | 1014.2 |
| 20260905083521 | 70 | 58 | 0.0 | 1.0 | 0.00 | 0.00 | 0.00 | 95 | 1014.4 |
| 20260905083018 | 70 | 151 | 0.0 | 0.0 | 0.00 | 0.00 | 0.00 | 95 | 1014.3 |
| 20260905082513 | 71 | 347 | 0.0 | 0.0 | 0.00 | 0.00 | 0.00 | 95 | 1014.2 |
| 20260905082009 | 71 | 124 | 0.0 | 0.0 | 0.00 | 0.00 | 0.00 | 95 | 1014.5 |
| 20260905081458 | 71 | 187 | 0.0 | 0.0 | 0.00 | 0.00 | 0.00 | 95 | 1014.6 |
| 20260905080957 | 71 | 145 | 0.0 | 0.0 | 0.00 | 0.00 | 0.00 | 95 | 1014.6 |
| 20260905080452 | 71 | 152 | 0.0 | 0.0 | 0.00 | 0.00 | 0.00 | 95 | 1014.6 |
| 20260905075951 | 71 | 275 | 0.0 | 1.0 | 0.00 | 0.00 | 0.00 | 95 | 1014.8 |
| 20260905075446 | 71 | 45 | 0.0 | 1.0 | 0.00 | 0.00 | 0.00 | 95 | 1014.7 |
| 20260905074944 | 71 | 320 | 0.0 | 1.0 | 0.00 | 0.00 | 0.00 | 95 | 1014.5 |
| 20260905074440 | 71 | 347 | 0.0 | 0.0 | 0.00 | 0.00 | 0.00 | 95 | 1014.5 |
| 20260905073935 | 71 | 151 | 0.0 | 0.0 | 0.00 | 0.00 | 0.00 | 95 | 1014.6 |
| 20260905073430 | 70 | 267 | 0.0 | 1.0 | 0.00 | 0.00 | 0.00 | 94 | 1014.8 |
| 20260905072925 | 70 | 24 | 0.0 | 0.0 | 0.00 | 0.00 | 0.00 | 94 | 1014.6 |
| 20260905072420 | 70 | 343 | 0.0 | 0.0 | 0.00 | 0.00 | 0.00 | 94 | 1015.0 |
| 20260905071916 | 70 | 343 | 0.0 | 0.0 | 0.00 | 0.00 | 0.00 | 94 | 1015.0 |
| 20260905071413 | 71 | 343 | 0.0 | 0.0 | 0.00 | 0.00 | 0.00 | 94 | 1015.0 |
| 20260905070912 | 71 | 343 | 0.0 | 0.0 | 0.00 | 0.00 | 0.00 | 94 | 1015.0 |
| 20260905070409 | 71 | 238 | 0.0 | 0.0 | 0.00 | 0.00 | 0.00 | 94 | 1015.3 |
| 20260905065908 | 71 | 238 | 0.0 | 0.0 | 0.00 | 0.00 | 0.00 | 94 | 1015.4 |
| 20260905065407 | 71 | 238 | 0.0 | 0.0 | 0.00 | 0.00 | 0.00 | 94 | 1015.7 |
| 20260905064902 | 71 | 238 | 0.0 | 0.0 | 0.00 | 0.00 | 0.00 | 94 | 1015.5 |
| 20260905064357 | 71 | 238 | 0.0 | 0.0 | 0.00 | 0.00 | 0.00 | 94 | 1015.2 |
| 20260905063856 | 71 | 238 | 0.0 | 0.0 | 0.00 | 0.00 | 0.00 | 94 | 1015.4 |
| 20260905063352 | 71 | 342 | 0.0 | 0.0 | 0.00 | 0.00 | 0.00 | 94 | 1015.9 |
| 20260905062848 | 71 | 318 | 0.0 | 0.0 | 0.00 | 0.00 | 0.00 | 94 | 1015.7 |
| 20260905062342 | 71 | 138 | 0.0 | 0.0 | 0.00 | 0.00 | 0.00 | 94 | 1015.7 |
| 20260905061837 | 71 | 138 | 0.0 | 0.0 | 0.00 | 0.00 | 0.00 | 94 | 1015.8 |
| 20260905061337 | 71 | 138 | 0.0 | 0.0 | 0.00 | 0.00 | 0.00 | 94 | 1015.8 |
| 20260905060831 | 71 | 251 | 0.0 | 0.0 | 0.00 | 0.00 | 0.00 | 94 | 1016.0 |
| 20260905060328 | 71 | 251 | 0.0 | 0.0 | 0.00 | 0.00 | 0.00 | 94 | 1016.1 |
| 20260905055827 | 71 | 251 | 0.0 | 0.0 | 0.00 | 0.00 | 0.00 | 94 | 1016.1 |
| 20260905055322 | 71 | 251 | 0.0 | 0.0 | 0.00 | 0.00 | 0.00 | 94 | 1015.9 |
| 20260905054822 | 71 | 251 | 0.0 | 0.0 | 0.00 | 0.00 | 0.00 | 94 | 1016.3 |
| 20260905054319 | 71 | 263 | 0.0 | 0.0 | 0.00 | 0.00 | 0.00 | 94 | 1016.2 |
| 20260905053817 | 71 | 263 | 0.0 | 0.0 | 0.00 | 0.00 | 0.00 | 94 | 1016.3 |
| 20260905053314 | 71 | 150 | 0.0 | 0.0 | 0.00 | 0.00 | 0.00 | 94 | 1016.5 |
| 20260905052814 | 71 | 150 | 0.0 | 0.0 | 0.00 | 0.00 | 0.00 | 94 | 1016.8 |
| 20260905052313 | 71 | 290 | 0.0 | 0.0 | 0.00 | 0.00 | 0.00 | 94 | 1016.9 |
| 20260905051813 | 71 | 290 | 0.0 | 0.0 | 0.00 | 0.00 | 0.00 | 94 | 1016.8 |
| 20260905051309 | 71 | 290 | 0.0 | 0.0 | 0.00 | 0.00 | 0.00 | 94 | 1016.7 |
| 20260905050806 | 71 | 290 | 0.0 | 0.0 | 0.00 | 0.00 | 0.00 | 94 | 1017.0 |
| 20260905050302 | 72 | 290 | 0.0 | 0.0 | 0.00 | 0.00 | 0.00 | 94 | 1017.1 |
| 20260905045757 | 72 | 290 | 0.0 | 0.0 | 0.00 | 0.00 | 0.00 | 94 | 1017.0 |
| 20260905045252 | 72 | 238 | 0.0 | 0.0 | 0.00 | 0.00 | 0.00 | 94 | 1017.2 |
| 20260905044753 | 72 | 163 | 0.0 | 0.0 | 0.00 | 0.00 | 0.00 | 94 | 1017.4 |
| 20260905044248 | 72 | 150 | 0.0 | 0.0 | 0.00 | 0.00 | 0.00 | 94 | 1017.5 |
| 20260905043746 | 72 | 150 | 0.0 | 0.0 | 0.00 | 0.00 | 0.00 | 94 | 1017.3 |
| 20260905043241 | 72 | 223 | 0.0 | 0.0 | 0.00 | 0.00 | 0.00 | 94 | 1017.5 |
| 20260905042737 | 72 | 223 | 0.0 | 0.0 | 0.00 | 0.00 | 0.00 | 94 | 1017.3 |
| 20260905042236 | 72 | 251 | 0.0 | 0.0 | 0.00 | 0.00 | 0.00 | 94 | 1017.6 |
| 20260905041731 | 72 | 250 | 0.0 | 1.0 | 0.00 | 0.00 | 0.00 | 94 | 1017.5 |
| 20260905041227 | 72 | 263 | 0.0 | 3.0 | 0.00 | 0.00 | 0.00 | 94 | 1017.6 |
| 20260905040722 | 72 | 69 | 0.0 | 0.0 | 0.00 | 0.00 | 0.00 | 94 | 1017.5 |
| 20260905040221 | 72 | 256 | 0.0 | 1.0 | 0.00 | 0.00 | 0.00 | 94 | 1017.7 |
| 20260905035720 | 72 | 245 | 0.0 | 0.0 | 0.00 | 0.55 | 0.55 | 94 | 1017.9 |
| 20260905035217 | 72 | 325 | 0.0 | 0.0 | 0.00 | 0.55 | 0.55 | 94 | 1018.0 |
| 20260905034713 | 72 | 163 | 0.0 | 0.0 | 0.00 | 0.55 | 0.55 | 94 | 1018.0 |
| 20260905034212 | 72 | 168 | 0.0 | 1.0 | 0.00 | 0.55 | 0.55 | 94 | 1017.8 |
| 20260905033711 | 72 | 250 | 0.0 | 0.0 | 0.02 | 0.55 | 0.55 | 94 | 1017.7 |
| 20260905033207 | 72 | 250 | 0.0 | 0.0 | 0.02 | 0.55 | 0.55 | 94 | 1017.7 |
| 20260905032706 | 72 | 250 | 0.0 | 0.0 | 0.00 | 0.55 | 0.55 | 94 | 1017.5 |
| 20260905032201 | 72 | 250 | 0.0 | 0.0 | 0.00 | 0.55 | 0.55 | 94 | 1017.5 |
| 20260905031657 | 72 | 250 | 0.0 | 0.0 | 0.00 | 0.55 | 0.55 | 94 | 1017.3 |
| 20260905031152 | 73 | 249 | 0.0 | 0.0 | 0.00 | 0.55 | 0.55 | 94 | 1017.5 |
| 20260905030647 | 73 | 238 | 0.0 | 0.0 | 0.00 | 0.55 | 0.55 | 94 | 1017.6 |
| 20260905030142 | 73 | 238 | 0.0 | 0.0 | 0.00 | 0.55 | 0.55 | 94 | 1017.6 |
| 20260905025637 | 72 | 330 | 0.0 | 1.0 | 0.00 | 0.55 | 0.55 | 94 | 1017.6 |
| 20260905025133 | 73 | 156 | 0.0 | 0.0 | 0.00 | 0.55 | 0.55 | 94 | 1017.5 |
| 20260905024629 | 73 | 163 | 0.0 | 0.0 | 0.00 | 0.55 | 0.55 | 94 | 1017.4 |
| 20260905024124 | 73 | 330 | 0.0 | 0.0 | 0.00 | 0.55 | 0.55 | 94 | 1017.3 |
| 20260905023619 | 72 | 330 | 0.0 | 0.0 | 0.00 | 0.55 | 0.55 | 94 | 1017.3 |
| 20260905023113 | 73 | 330 | 0.0 | 0.0 | 0.00 | 0.55 | 0.55 | 94 | 1017.5 |
| 20260905022613 | 73 | 330 | 0.0 | 0.0 | 0.00 | 0.55 | 0.55 | 94 | 1017.6 |
| 20260905022108 | 72 | 330 | 0.0 | 0.0 | 0.00 | 0.55 | 0.55 | 94 | 1017.5 |
| 20260905021608 | 72 | 247 | 0.0 | 0.0 | 0.00 | 0.55 | 0.55 | 94 | 1017.3 |
| 20260905021103 | 72 | 216 | 0.0 | 0.0 | 0.00 | 0.55 | 0.55 | 94 | 1017.2 |
| 20260905020603 | 72 | 181 | 0.0 | 0.0 | 0.00 | 0.55 | 0.55 | 94 | 1017.2 |
| 20260905020058 | 72 | 181 | 0.0 | 0.0 | 0.00 | 0.55 | 0.55 | 94 | 1016.8 |
| 20260905015557 | 72 | 181 | 0.0 | 0.0 | 0.00 | 0.55 | 0.55 | 94 | 1016.5 |
| 20260905015051 | 72 | 238 | 0.0 | 0.0 | 0.00 | 0.55 | 0.55 | 94 | 1016.8 |
| 20260905014545 | 73 | 238 | 0.0 | 0.0 | 0.00 | 0.55 | 0.55 | 94 | 1016.7 |
| 20260905014041 | 73 | 251 | 0.0 | 0.0 | 0.00 | 0.55 | 0.55 | 94 | 1016.7 |
| 20260905013537 | 73 | 233 | 0.0 | 0.0 | 0.00 | 0.55 | 0.55 | 94 | 1016.5 |
| 20260905013033 | 73 | 233 | 0.0 | 0.0 | 0.00 | 0.55 | 0.55 | 94 | 1016.2 |
| 20260905012527 | 73 | 150 | 0.0 | 0.0 | 0.00 | 0.55 | 0.55 | 94 | 1016.5 |
| 20260905012024 | 73 | 138 | 0.0 | 0.0 | 0.00 | 0.55 | 0.55 | 94 | 1016.4 |
| 20260905011520 | 73 | 138 | 0.0 | 0.0 | 0.00 | 0.55 | 0.55 | 94 | 1016.3 |
| 20260905011015 | 73 | 138 | 0.0 | 0.0 | 0.00 | 0.55 | 0.55 | 94 | 1016.2 |
| 20260905010515 | 73 | 138 | 0.0 | 0.0 | 0.00 | 0.55 | 0.55 | 94 | 1016.4 |
| 20260905010011 | 73 | 138 | 0.0 | 0.0 | 0.00 | 0.55 | 0.55 | 94 | 1016.4 |
| 20260905005507 | 73 | 138 | 0.0 | 0.0 | 0.00 | 0.55 | 0.55 | 94 | 1016.1 |
| 20260905005002 | 73 | 138 | 0.0 | 0.0 | 0.00 | 0.55 | 0.55 | 94 | 1015.8 |
| 20260905004457 | 73 | 138 | 0.0 | 0.0 | 0.00 | 0.55 | 0.55 | 94 | 1016.0 |
| 20260905003952 | 73 | 138 | 0.0 | 0.0 | 0.00 | 0.55 | 0.55 | 94 | 1015.9 |
| 20260905003448 | 73 | 138 | 0.0 | 0.0 | 0.00 | 0.55 | 0.55 | 93 | 1016.2 |
| 20260905002943 | 73 | 138 | 0.0 | 0.0 | 0.00 | 0.55 | 0.55 | 93 | 1016.2 |
| 20260905002444 | 73 | 290 | 0.0 | 0.0 | 0.00 | 0.55 | 0.55 | 93 | 1016.7 |
| 20260905001943 | 73 | 239 | 0.0 | 0.0 | 0.00 | 0.55 | 0.55 | 93 | 1016.5 |
| 20260905001438 | 73 | 256 | 0.0 | 0.0 | 0.00 | 0.55 | 0.55 | 93 | 1016.4 |
| 20260905000932 | 73 | 290 | 0.0 | 0.0 | 0.00 | 0.55 | 0.55 | 93 | 1016.5 |
| 20260905000429 | 73 | 150 | 0.0 | 0.0 | 0.00 | 0.55 | 0.55 | 93 | 1016.7 |
| 20260904235924 | 73 | 143 | 0.0 | 0.0 | 0.00 | 0.55 | 0.55 | 93 | 1016.8 |
| 20260904235420 | 73 | 251 | 0.0 | 0.0 | 0.00 | 0.55 | 0.55 | 93 | 1016.9 |
| 20260904234920 | 73 | 251 | 0.0 | 0.0 | 0.00 | 0.55 | 0.55 | 93 | 1016.9 |
| 20260904234419 | 73 | 251 | 0.0 | 0.0 | 0.00 | 0.55 | 0.55 | 93 | 1016.4 |